Powrót do katalogu

KL-BETA A

AktywnyNaukaPO
NORAD 49059·PAYLOAD·🇩🇪 Germany

Wystrzelony Aug 4, 2021 z Taiyuan Satellite Launch Center

Loading…

Następne Przeloty (najbliższe 24 godziny)

TLE

ŚwieżeSource: Space-Track

Epoka: Sep 14, 2026, 15:03 UTC

1 49059U 21070A   26257.62772874 -.00000094  00000-0 -81156-4 0  9992
2 49059  89.0111 208.9165 0003558  90.0826 270.0757 13.94403488260398

Śledź KL-BETA A w czasie rzeczywistym z AllMySat

Download on the App Store